Date String (YYYY-MM-DD hh:mm:ss) UTC,Instrument flags,Ambient pressure (hPa),Sample flow (lpm),Bypass flow (lpm),Sample temperature (°C),Ambient temperature (°C),ASC tube jacket temperature (°C),LED temperature (°C),Box temperature (°C),Sample RH (%),Span deviation,Mass concentration (μg/m³),Mass concentration (μg/m³),Mass concentration (μg/m³)
DateTimeUTC,F1_M11,P_M11,Q1_M11,Q2_M11,T1_M11,T2_M11,T3_M11,T4_M11,T5_M11,U1_M11,ZSPAN_M11,X0_M11,X2_M11,X1_M11
2023-05-14 04:00:00,,0839.7,4.99,0.00,30.1,28.5,00.0,38.5,31.6,24.7,0000.0,0004.38,0003.32,0003.20
2023-05-14 04:01:00,,0839.7,4.99,0.00,30.1,28.5,00.0,38.5,31.6,24.6,0000.0,0004.40,0003.33,0003.21
2023-05-14 04:02:00,,0839.7,5.00,0.00,30.1,28.5,00.0,38.5,31.6,24.6,0000.0,0004.66,0003.35,0003.23
2023-05-14 04:03:00,,0839.7,5.01,0.00,30.1,28.5,00.0,38.5,31.6,24.6,0000.0,0005.31,0003.35,0003.24
2023-05-14 04:04:00,,0839.7,5.00,0.00,30.1,28.5,00.0,38.5,31.6,24.7,0000.0,0005.14,0003.36,0003.25
2023-05-14 04:05:00,,0839.7,4.99,0.00,30.1,28.5,00.0,38.5,31.6,24.7,0000.0,0004.95,0003.37,0003.27
2023-05-14 04:06:00,,0839.8,4.99,0.00,30.1,28.5,00.0,38.5,31.6,24.5,0000.0,0004.90,0003.37,0003.29
2023-05-14 04:07:00,,0839.7,5.00,0.00,30.1,28.5,00.0,38.5,31.6,24.6,0000.0,0004.53,0003.39,0003.31
2023-05-14 04:08:00,,0839.6,5.01,0.00,30.1,28.4,00.0,38.5,31.6,24.6,0000.0,0004.56,0003.40,0003.31
2023-05-14 04:09:00,,0839.7,5.01,0.00,30.1,28.4,00.0,38.5,31.6,24.6,0000.0,0004.54,0003.41,0003.33
2023-05-14 04:10:00,,0839.7,4.99,0.00,30.1,28.4,00.0,38.5,31.6,24.6,0000.0,0004.60,0003.44,0003.36
2023-05-14 04:11:00,,0839.7,4.99,0.00,30.1,28.4,00.0,38.5,31.6,24.6,0000.0,0004.63,0003.46,0003.38
2023-05-14 04:12:00,,0839.7,4.99,0.00,30.1,28.4,00.0,38.5,31.6,24.6,0000.0,0004.70,0003.49,0003.40
2023-05-14 04:13:00,,0839.7,5.02,0.00,30.1,28.4,00.0,38.5,31.6,24.5,0000.0,0004.58,0003.49,0003.42
2023-05-14 04:14:00,,0839.8,5.00,0.00,30.1,28.4,00.0,38.5,31.6,24.6,0000.0,0003.75,0003.51,0003.43
2023-05-14 04:15:00,,0839.7,4.99,0.00,30.1,28.4,00.0,38.5,31.6,24.6,0000.0,0003.77,0003.53,0003.44
2023-05-14 04:16:00,,0839.8,5.00,0.00,30.1,28.4,00.0,38.5,31.6,24.6,0000.0,0003.77,0003.53,0003.45
2023-05-14 04:17:00,,0839.8,5.02,0.00,30.1,28.4,00.0,38.5,31.6,24.6,0000.0,0003.85,0003.56,0003.46
2023-05-14 04:18:00,,0839.8,4.99,0.00,30.1,28.4,00.0,38.5,31.6,24.7,0000.0,0003.84,0003.56,0003.48
2023-05-14 04:19:00,,0839.8,4.99,0.00,30.1,28.4,00.0,38.5,31.6,24.8,0000.0,0003.77,0003.56,0003.49
2023-05-14 04:20:00,,0839.8,5.00,0.00,30.1,28.4,00.0,38.5,31.5,24.7,0000.0,0003.78,0003.56,0003.49
2023-05-14 04:21:00,,0839.8,5.01,0.00,30.0,28.4,00.0,38.5,31.5,24.8,0000.0,0003.78,0003.57,0003.50
2023-05-14 04:22:00,,0839.8,5.00,0.00,30.0,28.4,00.0,38.5,31.5,24.8,0000.0,0003.80,0003.58,0003.50
2023-05-14 04:23:00,,0839.9,5.00,0.00,30.0,28.4,00.0,38.4,31.5,24.8,0000.0,0003.76,0003.58,0003.50
2023-05-14 04:24:00,,0839.9,5.00,0.00,30.0,28.4,00.0,38.4,31.5,24.7,0000.0,0003.84,0003.61,0003.52
2023-05-14 04:25:00,,0839.9,4.99,0.00,30.0,28.4,00.0,38.4,31.5,24.7,0000.0,0003.93,0003.64,0003.54
2023-05-14 04:26:00,,0839.8,5.00,0.00,30.0,28.4,00.0,38.4,31.5,24.6,0000.0,0003.96,0003.66,0003.56
2023-05-14 04:27:00,,0839.9,5.00,0.00,30.0,28.4,00.0,38.4,31.5,24.6,0000.0,0003.95,0003.67,0003.58
2023-05-14 04:28:00,,0839.9,5.01,0.00,30.0,28.4,00.0,38.4,31.5,24.6,0000.0,0003.94,0003.68,0003.59
2023-05-14 04:29:00,,0839.8,4.99,0.00,30.0,28.4,00.0,38.4,31.5,24.7,0000.0,0003.94,0003.68,0003.59
2023-05-14 04:30:00,,0839.9,5.00,0.00,30.0,28.3,00.0,38.4,31.5,24.7,0000.0,0003.98,0003.69,0003.60
2023-05-14 04:31:00,,0839.8,5.01,0.00,30.0,28.3,00.0,38.4,31.5,24.7,0000.0,0004.04,0003.71,0003.61
2023-05-14 04:32:00,,0839.8,5.00,0.00,30.0,28.3,00.0,38.4,31.5,24.7,0000.0,0004.06,0003.72,0003.62
2023-05-14 04:33:00,,0839.7,4.99,0.00,30.0,28.3,00.0,38.4,31.5,24.7,0000.0,0004.05,0003.71,0003.63
2023-05-14 04:34:00,,0839.8,4.99,0.00,30.0,28.3,00.0,38.4,31.5,24.7,0000.0,0004.08,0003.73,0003.65
2023-05-14 04:35:00,,0839.8,5.00,0.00,30.0,28.3,00.0,38.4,31.5,24.7,0000.0,0004.11,0003.73,0003.66
2023-05-14 04:36:00,,0839.8,5.00,0.00,30.0,28.3,00.0,38.4,31.5,24.7,0000.0,0004.13,0003.74,0003.66
2023-05-14 04:37:00,,0839.8,5.01,0.00,30.0,28.3,00.0,38.4,31.5,24.7,0000.0,0004.25,0003.76,0003.67
2023-05-14 04:38:00,,0839.7,4.99,0.00,30.0,28.3,00.0,38.4,31.5,24.7,0000.0,0004.31,0003.78,0003.68
2023-05-14 04:39:00,,0839.8,4.99,0.00,30.0,28.3,00.0,38.4,31.5,24.8,0000.0,0004.32,0003.79,0003.69
2023-05-14 04:40:00,,0839.8,5.00,0.00,30.0,28.3,00.0,38.4,31.5,24.9,0000.0,0004.42,0003.81,0003.71
2023-05-14 04:41:00,,0839.8,5.02,0.00,30.0,28.3,00.0,38.4,31.5,24.9,0000.0,0004.54,0003.86,0003.74
2023-05-14 04:42:00,,0839.8,5.00,0.00,30.0,28.3,00.0,38.4,31.4,24.9,0000.0,0004.76,0003.91,0003.77
2023-05-14 04:43:00,,0839.8,5.00,0.00,30.0,28.3,00.0,38.4,31.5,24.9,0000.0,0004.84,0003.94,0003.78
2023-05-14 04:44:00,,0839.8,4.99,0.00,29.9,28.3,00.0,38.4,31.4,24.9,0000.0,0004.83,0003.94,0003.79
2023-05-14 04:45:00,,0839.9,5.02,0.00,29.9,28.3,00.0,38.4,31.4,24.9,0000.0,0004.93,0003.97,0003.80
2023-05-14 04:46:00,,0839.9,5.00,0.00,29.9,28.3,00.0,38.4,31.4,25.0,0000.0,0004.97,0003.96,0003.80
2023-05-14 04:47:00,,0839.9,4.99,0.00,29.9,28.3,00.0,38.4,31.4,25.0,0000.0,0005.00,0003.97,0003.80
2023-05-14 04:48:00,,0839.9,4.99,0.00,29.9,28.2,00.0,38.3,31.4,25.0,0000.0,0004.89,0003.95,0003.79
2023-05-14 04:49:00,,0839.9,5.01,0.00,29.9,28.2,00.0,38.3,31.4,25.1,0000.0,0004.85,0003.93,0003.77
2023-05-14 04:50:00,,0839.9,5.01,0.00,29.9,28.2,00.0,38.3,31.4,25.0,0000.0,0004.84,0003.92,0003.76
2023-05-14 04:51:00,,0839.9,4.99,0.00,29.9,28.2,00.0,38.3,31.4,25.1,0000.0,0004.76,0003.90,0003.74
2023-05-14 04:52:00,,0839.9,4.99,0.00,29.9,28.2,00.0,38.3,31.4,25.1,0000.0,0004.73,0003.89,0003.73
2023-05-14 04:53:00,,0839.9,5.02,0.00,29.9,28.2,00.0,38.3,31.4,25.1,0000.0,0004.53,0003.87,0003.72
2023-05-14 04:54:00,,0839.9,5.00,0.00,29.9,28.2,00.0,38.3,31.4,25.2,0000.0,0004.50,0003.86,0003.73
2023-05-14 04:55:00,,0839.9,5.00,0.00,29.9,28.2,00.0,38.3,31.4,25.2,0000.0,0004.50,0003.86,0003.73
2023-05-14 04:56:00,,0839.9,5.00,0.00,29.9,28.2,00.0,38.3,31.4,25.3,0000.0,0004.42,0003.85,0003.72
2023-05-14 04:57:00,,0839.9,5.00,0.00,29.9,28.2,00.0,38.3,31.4,25.4,0000.0,0004.33,0003.85,0003.73
2023-05-14 04:58:00,,0840.0,5.01,0.00,29.9,28.2,00.0,38.3,31.4,25.4,0000.0,0004.34,0003.85,0003.75
2023-05-14 04:59:00,,0840.1,4.99,0.00,29.9,28.2,00.0,38.3,31.4,25.5,0000.0,0004.29,0003.85,0003.76
